Regional Weather Roundup
Issued by NWS Upton, NY

Home | Current Version | Previous Version | Text Only | Print | Product List | Glossary On
Versions: 1 2 3 4 5 6 7 8 9 10 11 12 13 14 15 16 17 18 19 20 21 22 23 24 25 26 27
000
ASUS41 KOKX 181808
RWROKX

Regional Weather Roundup
National Weather Service New York NY
100 PM EST THU JAN 18 2018

Note: "FAIR" indicates few or no clouds below 12,000 feet with no
significant weather and/or obstructions to visibility.

NYZ071-072-176-178-NJZ106-104-181900-
New York City Metro Area

CITY           SKY/WX    TMP DP  RH WIND       PRES   REMARKS
Central Park   FAIR      30   7  37 NW9G20    29.97F WCI  22
Bronx Bot Gard   N/A     32   9  37 NW5       29.95F WCI  27
Bronx Lehman C   N/A     32  10  40 NW8         N/A  WCI  25
LaGuardia Arpt FAIR      31  11  43 NW16      29.95F WCI  20
Queens College   N/A     32   9  37 NW14        N/A  WCI  22
Kennedy Intl   FAIR      33   9  36 NW16      29.95F WCI  23
Breezy Point     N/A    N/A N/A N/A NW13G20     N/A
Brooklyn Coll    N/A     32   7  34 NW15        N/A  WCI  22
Staten Island    N/A     30   9  40 NW10        N/A  WCI  21
Newark/Liberty FAIR      32   8  36 NW16G22   29.98F WCI  21
Teterboro      FAIR      30   9  41 NW13G24   29.96F WCI  20
$$

NYZ177-179-078>081-181900-
Long Island New York

CITY           SKY/WX    TMP DP  RH WIND       PRES   REMARKS
Jones Beach      N/A    N/A N/A N/A NW14        N/A
Wantagh          N/A     32  10  40 W13         N/A  WCI  22
Matinecock Pt    N/A    N/A N/A N/A NW18        N/A
Farmingdale    FAIR      31  11  43 N13       29.93F WCI  21
MacArthur/ISP  FAIR      30  15  53 N15       29.92F WCI  19
Shirley        FAIR      30  15  53 NW14      29.91F WCI  19
Mt Sinai Harb    N/A    N/A N/A N/A NW10        N/A
Westhampton    FAIR      30  12  47 NW18G26   29.91F WCI  18
East Hampton   FAIR      29  16  58 NW12G23   29.88F WCI  20
Southold         N/A     30  18  59 NW10        N/A  WCI  21
Montauk          N/A     35  15  44 NW13G20   29.88F WCI  26
$$

NYZ052-065-067-181900-
Hudson Valley

CITY           SKY/WX    TMP DP  RH WIND       PRES   REMARKS
White Plains   FAIR      26  13  57 NW10      29.92F WCI  16
Larchmont Harb   N/A    N/A N/A N/A NW13        N/A
Croton On Huds   N/A    N/A N/A N/A NW12        N/A
Somers           N/A     25  12  58 NW8         N/A  WCI  16
Brewster         N/A     25  12  58 N10         N/A  WCI  15
Newburgh       SUNNY     25  14  63 VRB6      29.97F WCI  18
Montgomery     FAIR      26  12  55 NE3       29.93F
Otisville        N/A     27   9  46 NW3         N/A
Warwick          N/A     27  10  50 NW10        N/A  WCI  17
Suffern          N/A     27   9  46 NW10        N/A  WCI  17
Poughkeepsie   FAIR      23   9  55 NW7       29.97F WCI  15
Albany         FAIR      24  10  55 W17G23    30.01F WCI  11
$$

NJZ001-105-106-008-010-013-015-019>022-104-181900-
New Jersey

CITY           SKY/WX    TMP DP  RH WIND       PRES   REMARKS
Newark/Liberty FAIR      32   8  36 NW16G22   29.98F WCI  21
Teterboro      FAIR      30   9  41 NW13G24   29.96F WCI  20
Caldwell       FAIR      29   8  41 NW13      29.97F WCI  19
Somerville     FAIR      29  11  47 NW9       29.98F WCI  20
Linden         FAIR      31   8  37 N13G22    29.98F WCI  21
Perth Amboy      N/A    N/A N/A N/A NW17        N/A
Sussex         FAIR      27   8  44 W7        29.95F WCI  19
Andover          N/A     27   7  42 NW8       29.96F WCI  19
Trenton        FAIR      29   9  43 NW13G20   29.99F WCI  19
Millville      FAIR      32  13  45 NW16G22   30.02F WCI  21
Atlantic City  FAIR      35  11  36 NW17      29.97F WCI  25
Wrightstown    FAIR      30  12  47 NW16G22   29.96F WCI  18
Toms River     FAIR      32  12  43 NW18G24   29.97F WCI  20
Belmar         FAIR      31   9  39 W20G30    29.96F WCI  19
$$

PAZ047>061-062-071-181900-
Eastern Pennsylvania

CITY           SKY/WX    TMP DP  RH WIND       PRES   REMARKS
Philadelphia   FAIR      32   6  33 NW13G23   30.02F WCI  22
Allentown      FAIR      27   7  42 NW16      30.01F WCI  15
Scranton       FAIR      20   7  57 NW7       30.01F WCI  11
$$

CTZ002-004>006-009-010-012-RIZ004-006-007-MAZ004-011-015-181900-
Southern New England

 In CT

CITY           SKY/WX    TMP DP  RH WIND       PRES   REMARKS
Bradley Intl   FAIR      27  13  55 NW12G21   29.93F WCI  17
Hartford       FAIR      29  13  51 N14       29.93F WCI  18
Danbury        FAIR      25  10  53 N10G18    29.94F WCI  15
Wtrbury/Oxford FAIR      27  14  58 N14G21    29.89F WCI  16
Norwalk Harbor   N/A    N/A N/A N/A NW14G20     N/A
Bridgeport     FAIR      31  11  43 NW16G23   29.92F WCI  20
Meriden        FAIR      29  13  51 NW12G20   29.92F WCI  19
New Haven      FAIR      32  12  43 NW10G20   29.91F WCI  24
Chester        FAIR      30  10  43 N13G20    29.88F WCI  20
Groton         FAIR      34  14  43 NW15      29.87F WCI  24
Willimantic    FAIR      29  14  53 NW15      29.91F WCI  18

 In RI

CITY           SKY/WX    TMP DP  RH WIND       PRES   REMARKS
Providence     FAIR      33  17  51 N16G23    29.87F WCI  23
Block Island   FAIR      35  17  47 N13G18    29.86F WCI  26
Westerly       FAIR      34  14  43 NW12G24   29.87F WCI  25

In MA

CITY           SKY/WX    TMP DP  RH WIND       PRES   REMARKS
Boston         FAIR      30  17  58 NW13      29.88F WCI  20
Worcester      FAIR      23  12  62 NW14      29.84F WCI  11
Westfield      FAIR      26  12  55 NW15      29.92F WCI  14
Provincetown   FAIR      32  22  66 NW15      29.85  WCI  22
Nantucket      PTSUNNY   33  28  81 N17       29.83F WCI  22
$$

ANZ330-335-338-340-345-350-353-355-181900-
Coastal Marine Observations


STATION/POSITION TIME  SKY/WX   TEMP    WIND        PRES    VSBY  WAVE
                                AIR SEA DIR/SP/G                  HT/PER
                 (UTC)          (F)     (DEG/KT/KT) (MB)    (MI)  (FT/S)
NY Harb Entrance 1650            28 40  300/ 19/ 23 1015.5          3/11
20 S Fire Island 1650            29 42  310/ 21/ 25 1014.1          4/11
15 E Barnegat Li 1630               42                N/A           5/10
Hudson Canyon    1650            34 50  330/ 23/ 29 1012.4          7/ 6
Kings Point      1724            28 32   20/ 13/ 15 1015.8
Execution Rocks  NOT AVBL
Western LI Sound NOT AVBL
Central LI Sound 1715            28     290/ 10/ 12   N/A           1
Robbins Reef     1724            28     310/ 19/ 23 1015.7
$$


>>>>>>>>>>>>>>>>>>>>>>>>>>>> KEY <<<<<<<<<<<<<<<<<<<<<<<<<<<
>                                                          <
>     SKY/WX - Sky Condition/Present Weather               <
>     TMP    - Temperature in Fahrenheit                   <
>     DP     - Dew Point in Fahrenheit                     <
>     RH     - Relative Humidity in Percent                <
>     WIND   - Direction (from) and Speed in MPH           <
>     PRES   - Mean Sea Level Pressure (inches of Hg)      <
>     WCI    - Wind Chill Index                            <
>     VSB    - Visibility in Miles                         <
>     HX     - Heat Index                                  <
>     TC     - Temperature in Celsius                      <
>     VRB    - Varibale Wind Direction                     <
>                                                          <
>>>>>>>>>>>>>>>>>>>>>>>>>>>> KEY <<<<<<<<<<<<<<<<<<<<<<<<<<<




USA.gov is the U.S. government's official web portal to all federal, state and local government web resources and services.